Regional Weather Roundup
Issued by NWS Jackson, KY

Home | Current Version | Previous Version | Text Only | Print | Product List | Glossary Off
Versions: 1 2 3 4 5 6 7 8 9 10 11 12 13 14 15 16 17 18 19 20 21 22 23 24 25 26 27 28 29 30 31 32 33 34 35 36 37 38 39 40 41 42 43 44 45 46 47 48 49 50

000
ASUS43 KJKL 231805
RWRJKL

EAST KENTUCKY HOURLY WEATHER ROUNDUP
NATIONAL WEATHER SERVICE JACKSON KY
200 PM EDT WED JUL 23 2014

NOTE: "FAIR" INDICATES FEW OR NO CLOUDS BELOW 12,000 FEET WITH
NO SIGNIFICANT WEATHER AND/OR OBSTRUCTIONS TO VISIBILITY.

* THESE REPORTS ARE NOT UNDER NWS QUALITY CONTROL AND MAY NOT
  REPORT WEATHER SUCH AS PRECIPITATION AND FOG.

KYZ079-080-083-085-087-088-110-112-115-119-120-231900
...EASTERN KENTUCKY...

CITY           SKY/WX    TMP DP  RH WIND       PRES   REMARKS
JACKSON        MOSUNNY   82  71  69 CALM      30.07F
6HR MIN TEMP:  73; 6HR MAX TEMP:  84;

LONDON         MOSUNNY   89  70  53 NW7       30.06F HX  94
6HR MIN TEMP:  74; 6HR MAX TEMP:  89; 6HR PCP:  0.02;

SOMERSET*      PTSUNNY   81  70  69 W3        30.07F
MONTICELLO*    MOSUNNY   88  73  60 NW8       30.08F HX  95
6HR MIN TEMP:  73; 6HR MAX TEMP:  90;

WILLIAMSBURG*  SUNNY    N/A N/A N/A W6          N/A
MIDDLESBORO*   MOSUNNY   81  72  74 S5        30.07F THUNDER
6HR MIN TEMP:  68; 6HR MAX TEMP:  85;

HARLAN APT*    MOCLDY    86  68  54 MISG      30.07F
BLACK MTN*       N/A     70  68  94 SW3         N/A
PIKEVILLE APT* CLOUDY    81  72  74 CALM      30.07F
BIG SANDY*     PTCLDY    86  73  65 SW5       30.04F HX  93
6HR MIN TEMP:  73; 6HR MAX TEMP:  86;

MOREHEAD APT*    N/A     86  70  58 SW10      30.06S HX  90
$$

KYZ035-036-041-042-044-050-067-078-099-231900
...CENTRAL KENTUCKY...

CITY           SKY/WX    TMP DP  RH WIND       PRES   REMARKS
MT STERLING*   MOSUNNY   86  70  58 NW5       30.06F HX  90
FLEMING/MASON* PTSUNNY   84  69  59 NW14      30.05F
DANVILLE*      PTSUNNY   77  72  83 CALM      30.06F
RICHMOND*      PTSUNNY   79  64  61 W10G23    30.07R
LEXINGTON      CLOUDY    80  72  76 S5        30.05F
6HR MIN TEMP:  74; 6HR MAX TEMP:  86; 6HR PCP:  0.09;

FRANKFORT      CLOUDY    79  73  82 CALM      30.04S
6HR MIN TEMP:  72; 6HR MAX TEMP:  83; 6HR PCP:  0.14;

$$

KYZ091>093-OHZ055-061-077-WVZ005-015-034-035-042-231900
...SOUTHERN OHIO/WEST VIRGINIA...

CITY           SKY/WX    TMP DP  RH WIND       PRES   REMARKS
COVINGTON      CLOUDY    73  67  81 S8        29.98F
COLUMBUS       CLOUDY    82  64  54 W15       30.01F
DAYTON         CLOUDY    74  67  78 NW12      30.05S
WILMINGTON     PTSUNNY   76  62  62 SW13      30.00F
HUNTINGTON     MOSUNNY   85  70  60 VRB7      30.00R
CHARLESTON     PTSUNNY   86  70  58 SW6       29.98F HX  90
PINEVILLE*     MOSUNNY   87  74  66 MISG      30.11F HX  95
BECKLEY        MOSUNNY   81  68  64 SW7       30.11F
BLUEFIELD      PTSUNNY   78  66  66 W7        30.15F
$$

VAZ002-007-008-TNZ017-027-036-066-071-231900
...SOUTHWEST VIRGINIA/EAST TENNESSEE...

CITY           SKY/WX    TMP DP  RH WIND       PRES   REMARKS
WISE*          PTSUNNY   75  66  73 S6        30.16F
JONESVILLE*    MOCLDY    73  73 100 CALM      30.10F
ABINGDON*      CLOUDY    80  71  75 N3        30.13F
BRISTOL        PTSUNNY   80  69  69 NW7       30.11F
KNOXVILLE      PTSUNNY   80  72  76 S7        30.07F
OAK RIDGE      MOSUNNY   86  71  60 VRB5      30.07F HX  91
CROSSVILLE     LGT RAIN  74  68  81 N13       30.13F
NASHVILLE      PTSUNNY   92  69  47 SW3       30.05F HX  97
$$

...KEY TO REMARKS...
VSB - VISIBILITY IN MILES
WCI - WIND CHILL INDEX
HX  - HEAT INDEX

$$


USA.gov is the U.S. government's official web portal to all federal, state and local government web resources and services.